Location: Mercogliano
(40.9167°N, 14.7333°E)
Time: 13:37:19
(UTC+00:00)

Nadezhda 4 Rocket - Pass Details

Date: 18 September 2020
Orbit: 949 x 992 km, 82.9° (Epoch: 28 October)

Event Time Altitude Azimuth Distance (km) Brightness Sun altitude
Rises 18:52:33 0° 353° (N) 3,634 7.4 -20.7°
Reaches altitude 10° 18:55:04 10° 355° (N) 2,683 6.6 -21.2°
Maximum altitude 19:01:12 82° 83° (E) 965 3.8 -22.3°
Enters shadow 19:04:41 28° 168° (SSE) 1,716 5.0 -22.9°
